^^
B2 Weather Station Historical Data
 
Daily Summary for December 15, 2018 Units:  English    Metric   Both
Daily Weekly Monthly Yearly Custom
  Current: High: Low: Average:
Temperature: 33.5 °F 33.5 °F 32.2 °F 33 °F
Dew Point: 32.2 °F 32.2 °F 30.9 °F 31.7 °F
Humidity: 95% 95% 95% 95%
Wind Speed: 9.2mph 11.5mph 4.6mph 7.5mph
Wind Gust: 6.3mph 9.5mph - -
WindNNE - - ENE
Pressure: 30.16 in 30.16 in 30.15 in -
Precipitation: 0 in      
Historical Graphs
 
 
Tabular Data for December 15, 2018
Time Temperature Dew Point Pressure Wind Wind Speed Wind Gust Humidity Rainfall Rate (Hourly) solar
00:04 33.1 °F 31.8 °F 30.16 in NNE 4.6 mph 4.1 mph 95% 0 in 0.00 W/m2
00:09 33 °F 31.7 °F 30.16 in NNE 6 mph 5 mph 95% 0 in 0.00 W/m2
00:14 32.9 °F 31.6 °F 30.16 in North 6.9 mph 5.1 mph 95% 0 in 0.00 W/m2
00:19 32.9 °F 31.6 °F 30.16 in NNE 6.9 mph 5.1 mph 95% 0 in 0.00 W/m2
00:24 33 °F 31.7 °F 30.15 in North 6 mph 5 mph 95% 0 in 0.00 W/m2
00:29 32.9 °F 31.6 °F 30.15 in NNE 6 mph 5.7 mph 95% 0 in 0.00 W/m2
00:34 32.9 °F 31.6 °F 30.15 in NNW 8.1 mph 5.4 mph 95% 0 in 0.00 W/m2
00:39 32.8 °F 31.5 °F 30.15 in North 6.9 mph 5.3 mph 95% 0 in 0.00 W/m2
00:44 32.7 °F 31.4 °F 30.15 in North 6.9 mph 5.4 mph 95% 0 in 0.00 W/m2
00:49 32.7 °F 31.4 °F 30.15 in North 6.9 mph 4.7 mph 95% 0 in 0.00 W/m2
00:54 32.5 °F 31.2 °F 30.16 in NNE 4.6 mph 3.8 mph 95% 0 in 0.00 W/m2
00:59 32.3 °F 31 °F 30.16 in NNE 4.6 mph 3.6 mph 95% 0 in 0.00 W/m2
01:04 32.2 °F 30.9 °F 30.16 in NNE 4.6 mph 4 mph 95% 0 in 0.00 W/m2
01:09 32.9 °F 31.6 °F 30.15 in NNE 11 mph 8.6 mph 95% 0 in 0.00 W/m2
01:14 33.2 °F 31.9 °F 30.15 in NNE 11.5 mph 8.8 mph 95% 0 in 0.00 W/m2
01:19 33.4 °F 32.1 °F 30.16 in NNE 11.5 mph 9.5 mph 95% 0 in 0.00 W/m2
01:24 33.5 °F 32.2 °F 30.15 in NNE 10.4 mph 7.6 mph 95% 0 in 0.00 W/m2
01:29 33.5 °F 32.2 °F 30.15 in NE 8.1 mph 6.8 mph 95% 0 in 0.00 W/m2
01:34 33.5 °F 32.2 °F 30.16 in NNE 9.2 mph 5.8 mph 95% 0 in 0.00 W/m2
01:39 33.5 °F 32.2 °F 30.16 in NNE 8.1 mph 7.6 mph 95% 0 in 0.00 W/m2
01:44 33.5 °F 32.2 °F 30.16 in NNE 9.2 mph 6.3 mph 95% 0 in 0.00 W/m2
Bourbonnais, Illinois, USA
Compliments of Weather Underground - 2 mb